This demonstration page uses our WeatherBlox Daily Observations layout. Learn more.

Left ArrowRight Arrow

39.08367, -84.50855

Hourly Observations for December 2, 2017

Temp ( °F °C ) Dew Point ( °F °C ) Humidity (%) Winds ( mph kmh ) Pressure ( in mb ) Visibility ( mi km ) Precip ( " mm )
12:05 am 00:05 Clear with Mist and Fog 29 -1.7 29 -1.7 100 100 N N/A 30.27 1025 2 3 N/A
12:15 am 00:15 Clear with Mist and Fog 28 -2.2 28 -2.2 100 100 NE 3 6 30.27 1025 5 8 N/A
12:53 am 00:53 Clear with Mist and Fog 28 -2.2 27 -2.8 96 96 N N/A 30.24 1024 4 6 N/A
1:02 am 01:02 Clear with Mist and Fog 26 -3.3 26 -3.3 100 100 N N/A 30.27 1025 2 3 N/A
1:19 am 01:19 Clear with Mist and Fog 27 -2.8 26 -3.3 96 96 N N/A 30.27 1025 3 5 N/A
1:28 am 01:28 Clear with Mist and Fog 27 -2.8 27 -2.8 100 100 N N/A 30.27 1025 2 3 N/A
1:45 am 01:45 Clear with Mist and Fog 27 -2.8 26 -3.3 96 96 N N/A 30.24 1024 1 1 N/A
1:51 am 01:51 Clear with Mist and Fog 28 -2 27 -3 93 93 N N/A 30.24 1024 2 3 N/A
1:53 am 01:53 Clear with Mist and Fog 28 -2.2 26 -3.3 92 92 N N/A 30.23 1024 3 5 N/A
2:07 am 02:07 Clear with Mist and Fog 28 -2.2 27 -2.8 96 96 N N/A 30.24 1024 2 3 N/A
2:22 am 02:22 Clear with Mist and Fog 27 -2.8 27 -2.8 100 100 N N/A 30.27 1025 3 5 N/A
2:27 am 02:27 Clear with Mist and Fog 26 -3.3 26 -3.3 100 100 N N/A 30.27 1025 2 3 N/A
2:36 am 02:36 Clear with Freezing Fog 26 -3.3 25 -3.9 96 96 N N/A 30.27 1025 1 1 N/A
2:53 am 02:53 Clear with Mist and Fog 26 -3.3 26 -3.3 100 100 N N/A 30.23 1024 1 2 N/A
2:58 am 02:58 Clear with Mist and Fog 27 -2.8 27 -2.8 100 100 N N/A 30.27 1025 3 5 N/A
3:53 am 03:53 Clear 28 -2.2 27 -2.8 96 96 N N/A 30.23 1024 8 13 N/A
4:53 am 04:53 Clear 28 -2.2 27 -2.8 96 96 E 3 6 30.23 1024 7 11 N/A
5:53 am 05:53 Clear 30 -1.1 29 -1.7 96 96 N N/A 30.23 1024 9 14 N/A
6:53 am 06:53 Clear 29 -1.7 29 -1.7 100 100 N N/A 30.25 1024 9 14 N/A
7:53 am 07:53 Sunny 29 -1.7 28 -2.2 96 96 N N/A 30.25 1024 10 16 N/A
8:53 am 08:53 Sunny 31 -0.6 31 -0.6 100 100 ENE 3 6 30.25 1024 10 16 N/A
9:53 am 09:53 Sunny 37 2.8 33 0.6 86 86 ENE 5 7 30.25 1024 9 14 N/A
10:53 am 10:53 Sunny 40 4.4 34 1.1 79 79 N N/A 30.24 1024 9 14 N/A
11:53 am 11:53 Sunny 47 8.3 37 2.8 69 69 W 3 6 30.22 1024 10 16 N/A
12:53 pm 12:53 Mostly Sunny 51 10.6 36 2.2 56 56 W 5 7 30.20 1023 10 16 N/A
1:53 pm 13:53 Sunny 53 11.7 32 undefined 45 45 W 3 6 30.16 1022 10 16 N/A
2:53 pm 14:53 Sunny 55 12.8 33 0.6 44 44 W 5 7 30.15 1021 10 16 N/A
3:53 pm 15:53 Sunny 54 12.2 33 0.6 45 45 S 8 13 30.13 1020 10 16 N/A
4:53 pm 16:53 Sunny 52 11.1 33 0.6 49 49 S 5 7 30.14 1021 10 16 N/A
5:53 pm 17:53 Clear 45 7.2 35 1.7 68 68 N N/A 30.15 1021 10 16 N/A
6:53 pm 18:53 Clear 39 3.9 34 1.1 82 82 N N/A 30.16 1022 10 16 N/A
7:53 pm 19:53 Clear 36 2.2 34 1.1 93 93 N N/A 30.18 1022 10 16 N/A
8:53 pm 20:53 Clear 35 1.7 33 0.6 93 93 N N/A 30.16 1021 10 16 N/A
9:53 pm 21:53 Partly Cloudy 33 0.6 32 undefined 96 96 E 3 6 30.21 1023 10 16 N/A
10:53 pm 22:53 Clear 32 undefined 31 -0.6 96 96 N N/A 30.19 1022 10 16 N/A
11:53 pm 23:53 Clear 33 0.6 31 -0.6 92 92 N N/A 30.19 1023 9 14 N/A

Powered by AerisWeather